パンスターズ彗星

P/2013 T1 ( PanSTARRS )

English version
Home page
Updated on April 29, 2014

---------------------------------------------------------------------

・ プロフィール

発見日 2013年10月5日
発見光度 21.8等
発見者 Pan-STARRS 1 telescope (Haleakala)

・ 写真集

・ 軌道要素

Epoch 2013 Aug. 16.0 TT = JDT 2456520.5
T 2013 July 31.25248 TT                                 MPC
q   2.2103921            (2000.0)            P               Q
n   0.06935379     Peri.  345.83434     +0.99386308     +0.08293263
a   5.8670876      Node    10.28312     -0.00277752     +0.68024909
e   0.6232557      Incl.   24.20860     -0.11058235     +0.72827423
P  14.2
From 41 observations 2013 Sept. 13-Nov. 4, mean residual 0".3.

・ 光度変化

        m1 = 16.0 + 5 logΔ + 10.0 log r

---------------------------------------------------------------------

軌道要素はM.P.E.C. 2013-V48に掲載されたものです。
光度グラフはComet for Windowsで作成したものです。

---------------------------------------------------------------------

Copyright(C) Seiichi Yoshida (comet@aerith.net). All rights reserved.